PAYLOAD A

Satellite information

Favourite Embed

Satellite Type and Status

PAYLOADIN ORBIT

Key statistics

Satellite PAYLOAD A at a glance.

Uptime

4530

Days in orbit

Revolutions

≈ 14.7

Per day

Orbit

SSO

Sun Synchronous Orbit

Inclination

98.1

Latest

Satellite identification and parameters

Extended collection of information and parameters for PAYLOAD A.

Object identification

Identified? True

Debris? False

Object name: PAYLOAD A

International designator: 2013-037A

Object number (NORAD): 39208

Object ID (CCSDS): 39208

Country: PEOPLES REPUBLIC OF CHINA (PRC)

Current information (Y/N): Y

RCS size: LARGE

Orbital parameters

Period: 97.828 minutes

Inclination: 98.0856 deg

SMA: 7032.901 km

Apoapsis: 660.787 km

Periapsis: 648.744 km

RAAN: 345.4917 deg

Eccentricy: 0.00085616

Argument of periapsis: 31.2914 deg

Mean anomaly: 328.8802 deg

Mean motion: 14.71977081 rev/day

Mean motion (dot): 0.00001276 rev/day2

B* drag term: 0.00021139411 1/REarth

Two-line elements (TLE)

Creation date: Dec. 12, 2025, 10:14 a.m.

Reference frame: TEME

Reference center: EARTH

Epoch: Dec. 12, 2025, 6:15 a.m. UTC

TLE line 0: 0 PAYLOAD A

TLE line 1: 1 39208U 13037A 25346.26069450 .00001276 00000-0 21139-3 0 9993

TLE line 2: 2 39208 98.0856 345.4917 0008562 31.2914 328.8802 14.71977081664703

Live tracking on map

Real-time ground track for satellite PAYLOAD A.

In-orbit conjunctions

There are no conjunctions computed for PAYLOAD A, at the moment. Check back to stay up to date, as we update our databases every day.

Go to all conjunctions

Associated space launch

PAYLOAD A was lifted into orbit during the mission ‘Long March 4C | Shijian 15, Shiyan 7 & ChuangXin 3’, on board a Long March 4C space rocket.

The launch took place on July 19, 2013, 11:37 p.m. from Launch Complex 9.

For more information about the launch, click the button.

Launch to space Long March 4C | Shijian 15, Shiyan 7 & ChuangXin 3
Long March 4C | Shijian 15, Shiyan 7 & ChuangXin 3

Agency: N/A

Status: Launch Successful

Launch date: July 19, 2013, 11:37 p.m. UTC

Rocket: Long March 4C

Launch pad: Launch Complex 9

Location: Taiyuan Satellite Launch Center, People's Republic of China

...

Latest news about this satellite

There are no fresh news available about this satellite. Check back as we update our databases every day.


Newsletter sign-up

Weekly statistics, charts and insights to help you stay on top of the space industry.